Weather History for Saskatoon, SK

Change the Weather History Date:

Friday, March 8, 2013

  Actual Average Record
Temperature  
Mean Temperature 5 °F -  
Max Temperature 15 °F 35 °F 41 °F (2004)
Min Temperature -5 °F 15 °F -32 °F (2003)
Degree Days  
Heating Degree Days 60    
Moisture  
Dew Point 2 °F    
Average Humidity 84    
Maximum Humidity 92    
Minimum Humidity 73    
Precipitation  
Precipitation 0.00 in 0.02 in - ()
Sea Level Pressure  
Sea Level Pressure 30.27 in    
Wind  
Wind Speed 6 mph ()    
Max Wind Speed 12 mph    
Max Gust Speed -    
Visibility 13.7 miles    
Events Snow    
Averages and records for this station are not official NWS values.
T = Trace of Precipitation, MM = Missing Value Source: Averaged Metar Reports

Daily Weather History Graph

Daily Weather History Graph

Search for Another Location

Airport:

Trip Planner

Search our weather history database for the weather conditions in past years. The results will help you decide how hot, cold, wet, or windy it might be!

Date:

Astronomy

Mar. 08, 2013 Rise Set
Actual Time 7:36 AM CST 6:59 PM CST
Civil Twilight 7:02 AM CST 7:33 PM CST
Nautical Twilight 6:23 AM CST 8:12 PM CST
Astronomical Twilight 5:43 AM CST 8:52 PM CST
Moon 5:43 AM CST (3/8) 3:39 PM CST (3/8)
Length of Visible Light 12h 30m
Length of Day
11h 23m
Waning Crescent, 11% of the Moon is Illuminated
Mar 8
Waning Crescent
Mar 11
New
Mar 19
First Quarter
Mar 27
Full
Apr 2
Last Quarter

Hourly Weather History & Observations

Time (CST) Temp. Windchill Dew Point Humidity Pressure Visibility Wind Dir Wind Speed Gust Speed Precip Events Conditions
12:00 AM 10.4 °F -1.5 °F 8.6 °F 92% 30.32 in 15.0 mi North 8.1 mph - N/A Snow Light Snow
12:24 AM 8.6 °F -1.3 °F 6.8 °F 92% 30.33 in 15.0 mi North 5.8 mph - N/A   Mostly Cloudy
1:00 AM 5.0 °F -2.1 °F 3.2 °F 92% 30.34 in 15.0 mi NNE 3.5 mph - N/A   Scattered Clouds
2:00 AM 5.0 °F -9.1 °F 3.2 °F 92% 30.33 in 15.0 mi North 9.2 mph - N/A   Scattered Clouds
2:54 AM 5.0 °F -8.1 °F 3.2 °F 92% 30.35 in 15.0 mi North 8.1 mph - N/A   Ice Crystals
3:00 AM 5.0 °F -6.9 °F 1.4 °F 85% 30.34 in 15.0 mi North 6.9 mph - N/A   Ice Crystals
3:39 AM 1.4 °F -13.5 °F -0.4 °F 92% 30.34 in 15.0 mi North 9.2 mph - N/A   Mostly Cloudy
4:00 AM 5.0 °F -6.9 °F 1.4 °F 85% 30.33 in 15.0 mi NNE 6.9 mph - N/A   Overcast
4:31 AM 1.4 °F -8.3 °F -2.2 °F 85% 30.34 in 12.0 mi NNE 4.6 mph - N/A   Ice Crystals
5:00 AM -0.4 °F -10.4 °F -4.0 °F 85% 30.34 in 15.0 mi NE 4.6 mph - N/A   Ice Crystals
5:37 AM -4.0 °F -14.6 °F -7.6 °F 85% 30.34 in 15.0 mi ENE 4.6 mph - N/A   Ice Crystals
6:00 AM -0.4 °F -12.0 °F -4.0 °F 85% 30.33 in 15.0 mi NNE 5.8 mph - N/A   Ice Crystals
7:00 AM -5.8 °F -14.5 °F -9.4 °F 84% 30.35 in 5.0 mi North 3.5 mph - N/A   Ice Crystals
8:00 AM -4.0 °F -12.4 °F -9.4 °F 78% 30.34 in 4.0 mi NE 3.5 mph - N/A   Ice Crystals
9:00 AM -2.2 °F -10.4 °F -5.8 °F 85% 30.35 in 5.0 mi NNE 3.5 mph - N/A   Ice Crystals
10:00 AM 1.4 °F - -2.2 °F 85% 30.33 in 10.0 mi Calm Calm - N/A   Ice Crystals
10:12 AM 1.4 °F -8.3 °F -2.2 °F 85% 30.32 in 15.0 mi NNE 4.6 mph - N/A   Ice Crystals
11:00 AM 5.0 °F -4.1 °F 1.4 °F 85% 30.31 in 15.0 mi South 4.6 mph - N/A   Ice Crystals
12:00 PM 10.4 °F -0.4 °F 6.8 °F 85% 30.28 in 15.0 mi South 6.9 mph - N/A   Mostly Cloudy
1:00 PM 12.2 °F 2.9 °F 8.6 °F 85% 30.28 in 15.0 mi SSW 5.8 mph - N/A   Scattered Clouds
2:00 PM 14.0 °F 3.9 °F 6.8 °F 73% 30.25 in 15.0 mi SSW 6.9 mph - N/A   Scattered Clouds
3:00 PM 14.0 °F 2.9 °F 6.8 °F 73% 30.22 in 15.0 mi South 8.1 mph - N/A   Mostly Cloudy
4:00 PM 15.8 °F 5.1 °F 8.6 °F 73% 30.19 in 15.0 mi South 8.1 mph - N/A   Scattered Clouds
5:00 PM 14.0 °F 2.9 °F 6.8 °F 73% 30.17 in 15.0 mi South 8.1 mph - N/A   Scattered Clouds
6:00 PM 12.2 °F 4.3 °F 6.8 °F 79% 30.17 in 15.0 mi SSE 4.6 mph - N/A   Mostly Cloudy
7:00 PM 10.4 °F -2.4 °F 6.8 °F 85% 30.16 in 15.0 mi South 9.2 mph - N/A   Mostly Cloudy
8:00 PM 12.2 °F -1.0 °F 6.8 °F 79% 30.14 in 15.0 mi South 10.4 mph - N/A   Mostly Cloudy
9:00 PM 12.2 °F -1.8 °F 6.8 °F 79% 30.12 in 15.0 mi South 11.5 mph - N/A   Mostly Cloudy
10:00 PM 10.4 °F -0.4 °F 6.8 °F 85% 30.12 in 15.0 mi SSW 6.9 mph - N/A   Mostly Cloudy
11:00 PM 10.4 °F 0.8 °F 5.0 °F 79% 30.11 in 15.0 mi SSW 5.8 mph - N/A   Mostly Cloudy